Change the Weather History Date:

Sunday, January 19, 2014

  Actual Average Record
Temperature  
Mean Temperature 30 °F 22 °F  
Max Temperature 32 °F 31 °F 52 °F (1972)
Min Temperature 27 °F 13 °F -26 °F (1971)
Degree Days  
Heating Degree Days 35 43  
Month to date heating degree days 771 807  
Since 1 July heating degree days 3473 3419  
Cooling Degree Days 0 0  
Month to date cooling degree days 0 0  
Year to date cooling degree days 0 0  
Moisture  
Dew Point 26 °F    
Average Humidity 85    
Maximum Humidity 100    
Minimum Humidity 69    
Precipitation  
Precipitation 0.09 in 0.11 in 1.85 in (1936)
Month to date precipitation 4.00 2.09  
Year to date precipitation 4.00 2.09  
Snow  
Snow 1.20 in 0.60 in 9.80 in (1960)
Month to date snowfall 17.4 12.0  
Since 1 July snowfall 44.1 27.1  
Snow Depth 5.00 in    
Sea Level Pressure  
Sea Level Pressure 29.58 in    
Wind  
Wind Speed 8 mph (WSW)    
Max Wind Speed 18 mph    
Max Gust Speed 26 mph    
Visibility 5 miles    
Events Snow    
T = Trace of Precipitation, MM = Missing Value Source: NWS Daily Summary

Daily Weather History Graph

Daily Weather History Graph

Search for Another Location

Airport or City:

Trip Planner

Search our weather history database for the weather conditions in past years. The results will help you decide how hot, cold, wet, or windy it might be!

Date:

Astronomy

Jan. 19, 2014 Rise Set
Actual Time 7:09 AM EST 4:35 PM EST
Civil Twilight 6:37 AM EST 5:06 PM EST
Nautical Twilight 6:02 AM EST 5:41 PM EST
Astronomical Twilight 5:28 AM EST 6:16 PM EST
Moon 8:18 PM EST (1/19) 8:30 AM EST (1/19)
Length of Visible Light 10h 28m
Length of Day
9h 25m
Waning Gibbous, 89% of the Moon is Illuminated
Jan 19
Waning Gibbous
Jan 24
Last Quarter
Jan 30
New
Feb 6
First Quarter
Feb 14
Full

Hourly Weather History & Observations

Time (EST) Temp. Windchill Dew Point Humidity Pressure Visibility Wind Dir Wind Speed Gust Speed Precip Events Conditions
12:39 AM 30.9 °F 25.2 °F 28.9 °F 92% 29.67 in 2.0 mi NNW 5.8 mph - 0.01 in Snow Light Snow
12:46 AM 30.2 °F 24.3 °F 28.4 °F 93% 29.67 in 2.0 mi NNW 5.8 mph - 0.01 in Snow Light Snow
12:51 AM 30.9 °F 25.2 °F 28.9 °F 92% 29.67 in 2.0 mi NW 5.8 mph - 0.01 in Snow Light Snow
1:51 AM 30.0 °F 25.2 °F 28.9 °F 96% 29.69 in 2.0 mi NNW 4.6 mph - 0.01 in Snow Light Snow
2:13 AM 30.0 °F 24.1 °F 28.0 °F 92% 29.70 in 3.0 mi WNW 5.8 mph - 0.00 in Snow Light Snow
2:42 AM 30.0 °F 23.2 °F 28.0 °F 92% 29.70 in 2.5 mi WNW 6.9 mph - 0.00 in Snow Light Snow
2:48 AM 30.2 °F 24.3 °F 28.4 °F 93% 29.70 in 3.0 mi WNW 5.8 mph - 0.00 in Snow Light Snow
2:51 AM 30.0 °F 24.1 °F 28.0 °F 92% 29.70 in 3.0 mi NW 5.8 mph - 0.00 in Snow Light Snow
3:41 AM 30.0 °F 26.5 °F 28.0 °F 92% 29.68 in 4.0 mi North 3.5 mph - 0.00 in Snow Light Snow
3:51 AM 28.9 °F 23.9 °F 28.0 °F 96% 29.67 in 5.0 mi NNW 4.6 mph - 0.00 in Snow Light Snow
4:51 AM 28.9 °F 23.9 °F 27.0 °F 92% 29.68 in 9.0 mi WNW 4.6 mph - 0.00 in   Overcast
5:37 AM 30.0 °F - 28.0 °F 92% 29.67 in 10.0 mi Calm Calm - N/A   Overcast
5:51 AM 30.0 °F - 28.0 °F 92% 29.68 in 9.0 mi Calm Calm - N/A   Overcast
6:51 AM 30.0 °F - 28.0 °F 92% 29.67 in 3.0 mi Calm Calm - 0.00 in Snow Light Snow
7:51 AM 30.0 °F 26.5 °F 28.0 °F 92% 29.65 in 4.0 mi WSW 3.5 mph - 0.00 in   Overcast
8:01 AM 30.0 °F 26.5 °F 28.0 °F 92% 29.64 in 1.8 mi West 3.5 mph - 0.00 in Snow Light Snow
8:16 AM 30.0 °F 26.5 °F 28.0 °F 92% 29.64 in 1.0 mi SW 3.5 mph - 0.00 in Snow Light Snow
8:38 AM 30.0 °F 25.2 °F 28.0 °F 92% 29.64 in 1.5 mi SW 4.6 mph - 0.00 in Snow Light Snow
8:51 AM 30.0 °F 26.5 °F 28.0 °F 92% 29.64 in 1.2 mi SW 3.5 mph - 0.01 in Snow Light Snow
9:51 AM 30.0 °F 25.2 °F 28.0 °F 92% 29.62 in 1.0 mi SSW 4.6 mph - 0.01 in Snow Light Snow
10:11 AM 30.0 °F - 28.9 °F 96% 29.60 in 1.0 mi Calm Calm - 0.01 in Snow Light Snow
10:46 AM 30.2 °F 25.4 °F 28.4 °F 93% 29.57 in 1.0 mi SSW 4.6 mph - 0.02 in Snow Light Snow
10:51 AM 30.9 °F 26.2 °F 28.9 °F 92% 29.57 in 1.0 mi SSW 4.6 mph - 0.02 in Snow Light Snow
11:06 AM 30.9 °F 25.2 °F 28.9 °F 92% 29.55 in 0.8 mi South 5.8 mph - 0.00 in Snow Light Snow
11:15 AM 30.9 °F 23.5 °F 28.9 °F 92% 29.54 in 1.0 mi SSW 8.1 mph - 0.00 in Snow Light Snow
11:51 AM 32.0 °F 25.6 °F 28.9 °F 88% 29.51 in 1.5 mi SW 6.9 mph - 0.01 in Snow Light Snow
12:04 PM 32.0 °F 23.6 °F 28.9 °F 88% 29.49 in 1.5 mi SW 10.4 mph 19.6 mph 0.00 in   Overcast
12:35 PM 32.0 °F 22.5 °F 28.9 °F 88% 29.47 in 2.0 mi WSW 12.7 mph 18.4 mph 0.00 in Snow Light Snow
12:51 PM 32.0 °F 21.6 °F 27.0 °F 82% 29.47 in 9.0 mi SW 15.0 mph 24.2 mph 0.00 in   Overcast
1:51 PM 32.0 °F 22.5 °F 26.1 °F 79% 29.45 in 10.0 mi SW 12.7 mph 21.9 mph 0.00 in   Overcast
2:04 PM 32.0 °F 21.6 °F 25.0 °F 75% 29.44 in 10.0 mi WSW 15.0 mph - N/A   Mostly Cloudy
2:51 PM 30.9 °F 20.2 °F 23.0 °F 72% 29.46 in 10.0 mi SW 15.0 mph 24.2 mph N/A   Mostly Cloudy
3:51 PM 30.0 °F 19.1 °F 21.0 °F 69% 29.47 in 10.0 mi WSW 15.0 mph 25.3 mph N/A   Clear
4:51 PM 28.9 °F 19.2 °F 19.9 °F 69% 29.47 in 10.0 mi SW 11.5 mph 21.9 mph N/A   Partly Cloudy
5:51 PM 28.0 °F 18.6 °F 21.0 °F 75% 29.48 in 10.0 mi SW 10.4 mph - N/A   Clear
6:51 PM 28.0 °F 20.0 °F 21.0 °F 75% 29.50 in 10.0 mi SW 8.1 mph - N/A   Clear
7:51 PM 28.0 °F 17.5 °F 21.0 °F 75% 29.48 in 10.0 mi SW 12.7 mph - N/A   Overcast
8:51 PM 28.0 °F 19.3 °F 21.0 °F 75% 29.49 in 10.0 mi SW 9.2 mph - N/A   Mostly Cloudy
9:51 PM 28.0 °F 19.3 °F 21.0 °F 75% 29.50 in 10.0 mi SSW 9.2 mph - N/A   Overcast
10:51 PM 28.0 °F 17.0 °F 21.0 °F 75% 29.48 in 10.0 mi SSW 13.8 mph 21.9 mph N/A   Mostly Cloudy
11:51 PM 28.0 °F 18.6 °F 19.9 °F 72% 29.48 in 10.0 mi SSW 10.4 mph 20.7 mph N/A   Clear